sat.trackr.live / text

‹ back to catalog

STARLINK-31185

NORAD 58788 · 2024-012B

PAYLOAD ACTIVE UNKNOWN

§ Identity

Operator
Country
US
Launch date
2024-01-15
Launch site
AFETR
Launch vehicle
Mass (kg)
RCS (m²)

Purposes: comms

External: N2YO · Heavens-Above · Gunter

§ Orbital elements

Epoch: 2026-09-19T23:11:26.725056Z

Period
94.27 min
Inclination
43.0027°
Eccentricity
0.0001358
Mean motion
15.27574974 rev/d
Perigee alt
482.1 km
Apogee alt
484.0 km
Semi-major
6,861.2 km
B*
5.3890e-5
RAAN
148.4523°
Arg perigee
264.1614°
Mean anomaly
95.9083°
Rev number
15,094

§ Raw data

STARLINK-311851 58788U 24012B   26262.96628154  .00001221  00000+0  53890-4 0  99982 58788  43.0027 148.4523 0001358 264.1614  95.9083 15.27574974150946

JSON: /api/v1/satellites/58788 · /tle

For live sub-satellite position, see the globe view (requires WebGL).

§ Visibility from observer

Set your observer location to see the next 7 days of passes ≥ 10°. The values pass through the URL so the page stays shareable.

No JS? Fill the form by hand. The geolocation button needs JavaScript.